Zaragoza, Spain

11:52 AM CEST on June 26, 2017 (GMT +0200)
Zaragoza

Weather History for LEZG - September, 2013

Change the Weather History Date:

Wednesday, September 25, 2013

  Actual Average Record
Temperature  
Mean Temperature 74 °F -  
Max Temperature 89 °F 70 °F 89 °F (2013)
Min Temperature 60 °F 51 °F 44 °F (2002)
Cooling Degree Days 10    
Growing Degree Days 24 (Base 50)    
Moisture  
Dew Point 59 °F    
Average Humidity 64    
Maximum Humidity 94    
Minimum Humidity 22    
Precipitation  
Precipitation 0.00 in 0.04 in - ()
Sea Level Pressure  
Sea Level Pressure 29.93 in    
Wind  
Wind Speed 6 mph ()    
Max Wind Speed 13 mph    
Max Gust Speed -    
Visibility 5.6 miles    
Events      
Averages and records for this station are not official NWS values.
T = Trace of Precipitation, MM = Missing Value Source: Averaged Metar Reports

Daily Weather History Graph

Daily Weather History Graph

Search for Another Location

Airport or City:

Trip Planner

Search our weather history database for the weather conditions in past years. The results will help you decide how hot, cold, wet, or windy it might be!

Date:

Astronomy

Sep. 25, 2013 Rise Set
Actual Time 7:54 AM CEST 7:56 PM CEST
Civil Twilight 7:26 AM CEST 8:23 PM CEST
Nautical Twilight 6:54 AM CEST 8:56 PM CEST
Astronomical Twilight 6:21 AM CEST 9:28 PM CEST
Moon 11:46 PM CEST (9/25) 1:52 PM CEST (9/25)
Length of Visible Light 12h 56m
Length of Day
12h 01m
Waning Gibbous, 66% of the Moon is Illuminated
Sep 25
Waning Gibbous
Sep 27
Last Quarter
Oct 5
New
Oct 12
First Quarter
Oct 19
Full

Hourly Weather History & Observations

Time (CEST) Temp. Heat Index Dew Point Humidity Pressure Visibility Wind Dir Wind Speed Gust Speed Precip Events Conditions
12:00 AM 69.8 °F - 60.8 °F 73% 29.95 in - East 8.1 mph - N/A   Clear
12:30 AM 69.8 °F - 60.8 °F 73% 29.95 in - East 6.9 mph - N/A   Clear
1:00 AM 69.8 °F - 60.8 °F 73% 29.95 in - East 6.9 mph - N/A   Clear
1:30 AM 69.8 °F - 60.8 °F 73% 29.95 in - East 6.9 mph - N/A   Clear
2:00 AM 68.0 °F - 60.8 °F 78% 29.95 in - East 4.6 mph - N/A   Clear
2:30 AM 66.2 °F - 60.8 °F 83% 29.98 in - East 6.9 mph - N/A   Clear
3:00 AM 66.2 °F - 60.8 °F 83% 29.98 in - East 6.9 mph - N/A   Clear
3:30 AM 66.2 °F - 60.8 °F 83% 29.95 in - ENE 3.5 mph - N/A   Clear
4:00 AM 64.4 °F - 60.8 °F 88% 29.95 in - East 4.6 mph - N/A   Clear
4:30 AM 64.4 °F - 60.8 °F 88% 29.95 in - East 4.6 mph - N/A   Clear
5:00 AM 64.4 °F - 60.8 °F 88% 29.95 in - East 4.6 mph - N/A   Clear
5:30 AM 64.4 °F - 60.8 °F 88% 29.95 in - East 2.3 mph - N/A   Clear
6:00 AM 62.6 °F - 60.8 °F 94% 29.95 in - East 3.5 mph - N/A   Clear
6:30 AM 62.6 °F - 59.0 °F 88% 29.95 in 3.7 mi East 4.6 mph - N/A   Unknown
7:00 AM 62.6 °F - 59.0 °F 88% 29.95 in 3.7 mi East 3.5 mph - N/A   Unknown
7:30 AM 62.6 °F - 59.0 °F 88% 29.95 in 3.7 mi East 2.3 mph - N/A   Unknown
8:00 AM 63 °F - 61 °F 90% 29.94 in 3 mi ENE 2.3 mph - -   Mist
8:00 AM 60.8 °F - 59.0 °F 94% 29.95 in 3.1 mi East 3.5 mph - N/A   Mist
8:30 AM 60.8 °F - 59.0 °F 94% 29.98 in 3.7 mi East 3.5 mph - N/A   Partly Cloudy
9:00 AM 62.6 °F - 60.8 °F 94% 29.98 in 4.3 mi East 3.5 mph - N/A   Scattered Clouds
9:30 AM 64.4 °F - 60.8 °F 88% 29.98 in 4.3 mi East 3.5 mph - N/A   Mostly Cloudy
10:00 AM 66.2 °F - 60.8 °F 83% 29.98 in 4.3 mi East 4.6 mph - N/A   Mostly Cloudy
10:30 AM 68.0 °F - 62.6 °F 83% 29.98 in 4.3 mi East 8.1 mph - N/A   Scattered Clouds
11:00 AM 68.0 °F - 62.6 °F 83% 29.98 in 5.0 mi East 8.1 mph - N/A   Scattered Clouds
11:30 AM 69.8 °F - 62.6 °F 78% 29.98 in 5.0 mi East 9.2 mph - N/A   Scattered Clouds
12:00 PM 71.6 °F - 62.6 °F 73% 29.98 in 5.6 mi East 9.2 mph - N/A   Partly Cloudy
12:30 PM 73.4 °F - 62.6 °F 69% 29.98 in 5.6 mi East 11.5 mph - N/A   Partly Cloudy
1:00 PM 75.2 °F - 62.6 °F 65% 29.95 in 5.6 mi East 10.4 mph - N/A   Partly Cloudy
1:30 PM 77.0 °F - 60.8 °F 57% 29.95 in 5.6 mi East 12.7 mph - N/A   Partly Cloudy
2:00 PM 80 °F - 62 °F 44% 29.90 in 9 mi East 10.4 mph - -   Scattered Clouds
2:00 PM 78.8 °F - 60.8 °F 54% 29.92 in 6.2 mi East 11.5 mph - N/A   Partly Cloudy
2:30 PM 82.4 °F 82.9 °F 60.8 °F 48% 29.92 in 6.2 mi East 10.4 mph - N/A   Partly Cloudy
3:00 PM 84.2 °F 83.8 °F 59.0 °F 42% 29.92 in 6.2 mi East 10.4 mph - N/A   Partly Cloudy
3:30 PM 84.2 °F 83.8 °F 59.0 °F 42% 29.89 in 6.2 mi East 11.5 mph - N/A   Partly Cloudy
4:00 PM 86.0 °F 85.4 °F 59.0 °F 40% 29.89 in 6.2 mi East 11.5 mph - N/A   Partly Cloudy
4:30 PM 86.0 °F 85.4 °F 59.0 °F 40% 29.86 in 6.2 mi East 10.4 mph - N/A   Partly Cloudy
5:00 PM 87.8 °F 87.1 °F 59.0 °F 38% 29.86 in 6.2 mi East 8.1 mph - N/A   Partly Cloudy
5:30 PM 87.8 °F - 51.8 °F 29% 29.86 in 6.2 mi ESE 9.2 mph - N/A   Partly Cloudy
6:00 PM 87.8 °F - 51.8 °F 29% 29.86 in 6.2 mi ESE 10.4 mph - N/A   Partly Cloudy
6:30 PM 87.8 °F - 50.0 °F 27% 29.86 in 6.2 mi ESE 12.7 mph - N/A   Partly Cloudy
7:00 PM 87.8 °F - 51.8 °F 29% 29.86 in 6.2 mi ESE 12.7 mph - N/A   Partly Cloudy
7:30 PM 86.0 °F - 51.8 °F 31% 29.86 in 6.2 mi SE 11.5 mph - N/A   Partly Cloudy
8:00 PM 86 °F - 53 °F 22% 29.82 in 9 mi SE 8.1 mph - -   Scattered Clouds
8:00 PM 84.2 °F - 50.0 °F 30% 29.86 in 6.2 mi SE 9.2 mph - N/A   Scattered Clouds
8:30 PM 82.4 °F - 50.0 °F 32% 29.86 in 6.2 mi SE 6.9 mph - N/A   Scattered Clouds
9:00 PM 82.4 °F - 51.8 °F 35% 29.89 in 6.2 mi ESE 6.9 mph - N/A   Partly Cloudy
9:30 PM 80.6 °F 80.3 °F 53.6 °F 39% 29.89 in 6.2 mi ESE 5.8 mph - N/A   Partly Cloudy
10:00 PM 78.8 °F - 55.4 °F 44% 29.89 in 6.2 mi ESE 8.1 mph - N/A   Partly Cloudy
10:30 PM 77.0 °F - 57.2 °F 50% 29.89 in 6.2 mi East 8.1 mph - N/A   Partly Cloudy
11:00 PM 75.2 °F - 59.0 °F 57% 29.92 in 6.2 mi East 8.1 mph - N/A   Partly Cloudy
11:30 PM 75.2 °F - 60.8 °F 61% 29.92 in 6.2 mi Variable 1.2 mph - N/A   Partly Cloudy